User: anonymous
Location: Caltech
(34.1382°N, 118.1253°W)
Time: 04:10:53
(UTC-07:00)
Language:

GPS 2-04 Rocket1 - Orbit

View from above orbital plane
View from above orbital plane
View from above satellite
View from above satellite

Ground track
Ground track

The orbit data is extracted from the following two-line orbital elements,

1 20303U 89085B   14206.17251321  .00001697  00000-0  83175-4 0  8319
2 20303 035.6341 117.5402 0141643 249.1994 262.7126 15.09925187339636
Epoch (UTC): 25 July 2014 04:08:25
Eccentricity: 0.0141643
inclination: 35.6341°
perigee height: 438 km
apogee height: 634 km
right ascension of ascending node: 117.5402°
argument of perigee: 249.1994°
revolutions per day: 15.09925187
mean anomaly at epoch: 262.7126°
orbit number at epoch: 33963

The dashed part of the orbit path shows where the satellite is in the earth's shadow,  

DLR